SL-18 DEB, 22599

Orbit data source: Space-Track

SL-18 DEB, 22599 is space debris in LEO originally from a launch on Thu, 25 Mar 1993 UTC launched from the Plesetsk Missile And Space Complex (PKMTR). Debris objects in space refer to the collection of defunct objects orbiting the Earth. Examples of debris include non-operational satellites, rocket bodies, and fragments generated from explosions, collisions, or faulty payload assembly.

Loading next visibility...
Identifier
22599, 1993-014E
Orbit
LEO
Country
Flag of CISCIS
Related business
Manufacturer
Kompleks-MIT
Mission
Spacecraft
Bus & Motor
Unknown
Mass
Unknown
Launch date (UTC)
1993-03-25 (33 years ago)
Launch vehicle
Unknown
Launch site
Plesetsk Missile And Space Complex (PKMTR)
Object type
Payload
Rocket body
Debris
Shape & HBR
Unknown shape, 0.1 m
Radar Cross Section
Small (<0.1 m²)

Expand to show TLE details & history
Last TLE update: 9 hours ago

TLE from 9 hours ago
0 SL-18 DEB
1 22599U 93014E   25294.57400795  .00004717  00000-0  10489-2 0  9996
2 22599  75.7554 359.5594 0125532 159.6570 200.9669 14.52326705704999
Epoch: 2025-10-21T13:46Z
TLE epoch observation values (Epoch: 2025-10-21T13:46:34.286Z)
Latitude
Longitude
122.65652°
Altitude
804.123 km
Speed
7.408 km/s
True Right ascension
23h 58m 14s
True Declination
0° 00' 00"
Sunlit
Object was in full shadow at epoch
Visualization orbit readout
Latitude
Unknown
Longitude
Unknown
Altitude
Unknown
Speed
Unknown
Apparent Right ascension
Unknown
Apparent Declination
Unknown
Sunlit
N/A
Visualization observer readout
Local Sidereal Time
17:55:35
Azimuth
Unknown
Elevation
Unknown
Doppler factor
Unknown
Orbital elements
Apogee altitude
804.572 km
Perigee altitude
626.476 km
Semi-major axis
7,093.661 km
Eccentricity
0.01255
Inclination
75.7554°
RAAN
359.5594°
Arg. of periapsis
159.657°
True anomaly
200.45961°
Mean anomaly
200.9669°
Eccentric anomaly
200.71252°
Mean motion
3.63277 °/min
Orbital period
99.1 mins
BSTAR
0.0010489
Loading maneuver chart data...
Computing Atmospheric mass density...
Loading historical data...
Loading historical data...
Loading historical data...
Loading historical data...
Loading historical data...
Loading historical data...
Loading historical data...

Documentation

Showing up to 5 results
|